This is the latest recevied weather packets stored in our database for station/object KD2DXJ. If no packets are shown the sender has not sent any weather packets the latest 10 day(s).
| Time | Temp. | Humidity | Pressure | Rain* | Wind** | Luminosity | Snow |
|---|---|---|---|---|---|---|---|
| 1777684485 | 6.67° C | 63% | 1011.5 hPa | 0 mm | - | 0 W/m² | - |
| 1777684182 | 7.22° C | 61% | 1011.7 hPa | 0 mm | - | 0 W/m² | - |
| 1777683879 | 7.22° C | 61% | 1011.6 hPa | 0 mm | - | 0 W/m² | - |
| 1777683575 | 7.22° C | 60% | 1011.6 hPa | 0 mm | - | 0 W/m² | - |
| 1777683273 | 7.22° C | 60% | 1011.7 hPa | 0 mm | - | 0 W/m² | - |
| 1777682971 | 7.22° C | 59% | 1011.6 hPa | 0 mm | - | 0 W/m² | - |
| 1777682667 | 7.22° C | 59% | 1011.9 hPa | 0 mm | - | 0 W/m² | - |
| 1777682364 | 7.78° C | 57% | 1011.7 hPa | 0 mm | - | 0 W/m² | - |
| 1777682061 | 7.78° C | 57% | 1011.5 hPa | 0 mm | - | 0 W/m² | - |
| 1777681757 | 7.78° C | 56% | 1011.7 hPa | 0 mm | - | 0 W/m² | - |
| 1777681455 | 7.78° C | 54% | 1011.3 hPa | 0 mm | - | 0 W/m² | - |
| 1777681152 | 7.78° C | 55% | 1011.5 hPa | 0 mm | - | 0 W/m² | - |
| 1777680850 | 7.78° C | 55% | 1011.6 hPa | 0 mm | - | 0 W/m² | - |
| 1777680547 | 7.78° C | 55% | 1011.5 hPa | 0 mm | - | 1 W/m² | - |
| 1777680246 | 7.78° C | 53% | 1011.5 hPa | 0 mm | - | 1 W/m² | - |
| 1777679941 | 7.78° C | 55% | 1011.3 hPa | 0 mm | - | 2 W/m² | - |
| 1777679637 | 8.33° C | 52% | 1011.3 hPa | 0 mm | - | 3 W/m² | - |
| 1777679332 | 8.33° C | 54% | 1011.1 hPa | 0 mm | - | 4 W/m² | - |
| 1777679029 | 8.33° C | 53% | 1011.1 hPa | 0 mm | - | 6 W/m² | - |
| 1777678728 | 8.33° C | 55% | 1011.2 hPa | 0 mm | - | 9 W/m² | - |
| 1777678425 | 8.33° C | 54% | 1011 hPa | 0 mm | - | 13 W/m² | - |
| 1777678120 | 8.33° C | 51% | 1011 hPa | 0 mm | - | 16 W/m² | - |
| 1777677818 | 8.33° C | 51% | 1011 hPa | 0 mm | - | 13 W/m² | - |
| 1777677516 | 8.33° C | 51% | 1011 hPa | 0 mm | - | 12 W/m² | - |
| 1777677213 | 8.33° C | 50% | 1011 hPa | 0 mm | - | 11 W/m² | - |
* Rain latest hour (hover to see other rain measurements)
** Current wind speed in m/s (hover to see current wind gust speed)